www.pogodaiklimat.ru

Погода и климат >> Архив погоды >> Франция >> Бастия


ПОГОДА в Бастии

  • Прогноз погоды в Бастии
  • Монитор погоды в Бастии

АРХИВ ПОГОДЫ в Бастии

Время (UTC), дата Ветер
(напр.,м/с)
 
Видим.   Явления Облачность Т
(С)
Тd
(С)
f
(%)
Тe
(С)
Тes
(С)
Комфортность P
(гПа)
Po
(гПа)
Тmin
(С)
Tmax
(С)
R
(мм)
R24
(мм)
S
(см)
10 15.08 В 2 30 км н/о +28.0 +18.1 55 +33 +33 очень
душно
1015.8 1014.4
11 15.08 В 2 19 км н/о +27.7 +18.1 56 +32 +32 очень
душно
1015.6 1014.2
12 15.08 В 4
{7}
30 км н/о +28.4 +18.8 56 +34 +34 очень
душно
1015.3 1013.9 0
13 15.08 В 2 19 км н/о +28.5 +19.2 57 +34 +34 очень
душно
1015.0 1013.6
14 15.08 В 2 35 км 9/8 1050 м
[]
+27.5 +19.6 62 +33 +35 очень
душно
1014.8 1013.4
15 15.08 СВ 2
{5}
35 км 10/10 1000 м
[]
+26.1 +19.2 66 +31 +31 очень
душно
1014.8 1013.4 0
16 15.08 ЮВ 1 35 км н/о +27.2 +20.0 65 +33 +33 очень
душно
1014.2 1012.8
17 15.08 ЮВ 1 30 км н/о +26.7 +19.8 66 +33 +33 очень
душно
1013.9 1012.5
18 15.08 В 2
{4}
45 км н/о +25.4 +19.8 71 +31 +31 очень
душно
1014.0 1012.6 +22.2 +28.9 0
19 15.08 ЮВ 1 2600 м дымка н/о +23.3 +19.9 81 +30 +30 очень
душно
1014.5 1013.1
20 15.08 ЮЗ 1 40 км н/о +22.2 +19.6 85 +28 +28 душно 1014.8 1013.4
21 15.08 ЮЗ 2
{3}
35 км н/о +21.7 +19.1 85 +27 +27 душно 1014.6 1013.2 0
22 15.08 ЮЗ 1 35 км н/о +21.3 +18.7 85 +26 +26 душно 1014.5 1013.1
23 15.08 ЮЗ 2 45 км н/о +20.8 +18.2 85 +26 +26 душно 1014.1 1012.7
00 16.08 ЮЗ 4
{6}
60 км н/о +21.4 +16.6 74 +25 +25 комфорт 1013.7 1012.3 0
01 16.08 ЮЗ 1 60 км н/о +20.0 +15.8 77 +24 +24 комфорт 1013.6 1012.2
02 16.08 Ю 2 60 км н/о +19.3 +14.3 73 +22 +22 комфорт 1013.4 1012.0
03 16.08 Ю 2-2
{4}
60 км н/о +19.1 +13.9 72 +21 +21 комфорт 1013.6 1012.2 0
04 16.08 З 1-2
{2}
60 км н/о +19.0 +13.2 69 +21 +21 комфорт 1014.1 1012.7
05 16.08 ЮЗ 1 60 км н/о +18.1 +13.6 75 +19 +19 1014.6 1013.2
06 16.08 ЮЗ 2
{3}
55 км 8/8 600 м
[]
+21.3 +15.2 68 +24 +25 комфорт 1015.1 1013.7 0
07 16.08 ЮЗ 1 50 км н/о +24.3 +17.3 65 +28 +28 душно 1015.4 1014.0
08 16.08 В 1 60 км н/о +27.1 +20.4 67 +34 +34 очень
душно
1015.6 1014.2
09 16.08 В 4
{8}
40 км н/о +27.5 +20.6 66 +34 +34 очень
душно
1015.7 1014.3 0
10 16.08 В 2 40 км н/о +27.9 +19.9 62 +34 +34 очень
душно
1015.8 1014.4
11 16.08 В 2 19 км н/о +28.4 +19.9 60 +35 +35 очень
душно
1015.5 1014.1
12 16.08 В 5
{8}
40 км н/о +27.8 +19.8 62 +34 +34 очень
душно
1015.3 1013.9 0
13 16.08 В 2 40 км 8/8 930 м
[]
+28.4 +20.4 62 +35 +38 очень
душно
1015.2 1013.8
14 16.08 ЮВ 2 40 км н/о +29.0 +19.9 58 +35 +35 очень
душно
1014.9 1013.5
15 16.08 В 3
{7}
45 км 8/8 1000 м
[]
+28.1 +19.6 60 +34 +35 очень
душно
1014.9 1013.5 0
16 16.08 СВ 1 50 км н/о +27.3 +19.6 63 +33 +33 очень
душно
1014.7 1013.3
17 16.08 В 1 45 км н/о +27.5 +20.1 64 +34 +34 очень
душно
1014.4 1013.0
18 16.08 В 2
{4}
45 км н/о +25.9 +20.2 71 +32 +32 очень
душно
1014.5 1013.1 +21.2 +29.0 0
19 16.08 Ю 1 3300 м дымка н/о +24.1 +20.4 80 +30 +30 очень
душно
1015.0 1013.6
20 16.08 З 1 35 км н/о +22.8 +20.1 85 +29 +29 очень
душно
1015.9 1014.5
21 16.08 ЮЗ 2
{2}
35 км н/о +22.2 +19.7 86 +28 +28 душно 1016.1 1014.7 0
22 16.08 ЮЗ 1 40 км н/о +22.0 +19.0 83 +27 +27 душно 1016.5 1015.1
23 16.08 ЮЗ 1 40 км н/о +21.6 +18.8 84 +26 +26 душно 1016.5 1015.1
00 17.08 ЮЗ 2
{3}
35 км н/о +20.9 +18.7 87 +26 +26 душно 1016.2 1014.8 0
01 17.08 ЮЗ 1 35 км н/о +20.5 +18.4 88 +26 +26 душно 1016.0 1014.6
02 17.08 Ю 1 35 км н/о +21.0 +18.6 86 +27 +27 душно 1015.9 1014.5
03 17.08 Ю 2-2
{3}
50 км н/о +20.2 +18.0 87 +24 +24 комфорт 1015.9 1014.5 0
04 17.08 ЮЗ 2-3
{3}
40 км н/о +21.0 +18.0 83 +26 +26 душно 1016.0 1014.6
05 17.08 ЮЗ 2-4
{4}
35 км н/о +21.8 +17.8 78 +26 +26 душно 1016.3 1014.9
06 17.08 ЮЗ 3
{8}
29 км н/о +23.5 +18.6 74 +28 +28 душно 1016.6 1015.2 +20.1 +25.8 0
07 17.08 Ю 2 55 км н/о +25.2 +18.6 67 +30 +30 душно 1017.0 1015.6
08 17.08 ЮВ 1 19 км н/о +27.4 +16.7 52 +31 +31 душно 1017.1 1015.7
09 17.08 ЮВ 3
{6}
60 км н/о +27.8 +19.3 60 +33 +33 очень
душно
1017.3 1015.9 0
10 17.08 В 2 19 км н/о +26.5 +20.3 69 +33 +33 очень
душно
1017.5 1016.1
11 17.08 В 1 35 км 8/8 600 м
[]
+26.7 +20.5 69 +33 +37 очень
душно
1017.5 1016.1
12 17.08 В 3
{5}
60 км н/о +27.6 +20.9 67 +35 +35 очень
душно
1017.4 1016.0 0
13 17.08 В 2 30 км н/о +28.3 +20.3 62 +35 +35 очень
душно
1017.0 1015.6
14 17.08 В 2 45 км 9/9 800 м
[]
+27.1 +20.2 66 +33 +35 очень
душно
1016.9 1015.5
15 17.08 В 3
{6}
40 км 9/9 600 м
[]
+26.8 +20.6 69 +33 +34 очень
душно
1016.8 1015.4 0
16 17.08 В 1 45 км 10/10 700 м
[]
+26.4 +20.7 71 +33 +33 очень
душно
1016.7 1015.3
17 17.08 В 1 40 км 9/9 700 м
[]
+26.3 +20.8 72 +33 +33 очень
душно
1016.3 1014.9
18 17.08 СВ 2
{4}
35 км 9/9 600 м
[]
+25.2 +20.5 75 +31 +31 очень
душно
1016.4 1015.0 +23.5 +28.9 0
19 17.08 В 1 2200 м дымка 10/10 630 м
[]
+24.5 +20.6 79 +30 +30 очень
душно
1016.5 1015.1
20 17.08 ЮЗ 1 19 км н/о +22.9 +20.8 88 +30 +30 очень
душно
1016.6 1015.2
21 17.08 ЮЗ 2
{2}
15 км н/о +22.1 +20.2 89 +28 +28 душно 1016.6 1015.2 0
22 17.08 ЮЗ 1 16 км н/о +21.4 +19.9 91 +26 +26 душно 1016.8 1015.4
23 17.08 ЮЗ 1 18 км н/о +21.3 +19.6 90 +26 +26 душно 1016.8 1015.4
00 18.08 ЮЗ 2-1
{3}
17 км н/о +20.9 +19.4 91 +26 +26 душно 1016.5 1015.1 0
01 18.08 ЮЗ 2-2
{2}
19 км н/о +21.2 +19.7 91 +26 +26 душно 1016.4 1015.0
02 18.08 Ю 1-2
{3}
18 км н/о +20.4 +18.9 91 +25 +25 комфорт 1016.2 1014.8
03 18.08 ЮЗ 2-1
{3}
27 км н/о +20.5 +18.8 90 +25 +25 комфорт 1016.1 1014.7 0
04 18.08 ЮЗ 1 17 км н/о +19.9 +18.4 91 +24 +24 комфорт 1016.0 1014.6
05 18.08 ЮЗ 1 25 км н/о +20.1 +18.4 90 +24 +24 комфорт 1016.1 1014.7
06 18.08 ЮЗ 2
{3}
40 км 9/9 300 м
[]
+21.3 +19.2 88 +26 +26 душно 1016.1 1014.7 +19.7 +25.1 0
07 18.08 Ю 1 45 км н/о +24.8 +20.3 76 +31 +31 очень
душно
1016.3 1014.9
08 18.08 В 2 40 км н/о +26.7 +21.2 72 +34 +34 очень
душно
1016.3 1014.9
09 18.08 В 5
{8}
19 км н/о +27.6 +21.6 70 +35 +35 очень
душно
1016.4 1015.0 0
10 18.08 ЮВ 3 18 км 9/9 720 м
[]
+28.4 +21.2 65 +36 +37 очень
душно
1016.5 1015.1
11 18.08 ЮВ 3 19 км н/о +28.7 +20.7 62 +36 +36 очень
душно
1016.4 1015.0
12 18.08 ЮВ 6
{10}
19 км н/о +29.0 +21.2 63 +37 +37 очень
душно
1016.1 1014.7 0
13 18.08 ЮВ 3 22 км н/о +28.5 +19.4 58 +34 +34 очень
душно
1016.2 1014.8
14 18.08 В 3 26 км н/о +28.8 +18.9 55 +34 +34 очень
душно
1016.0 1014.6
15 18.08 ЮВ 5
{8}
40 км н/о +28.5 +19.2 57 +34 +34 очень
душно
1015.7 1014.3 0
16 18.08 ЮВ 2 40 км н/о +28.0 +18.7 57 +33 +33 очень
душно
1015.5 1014.1
17 18.08 ЮВ 2 50 км н/о +27.0 +19.6 64 +33 +33 очень
душно
1015.3 1013.9
18 18.08 ЮВ 2
{6}
50 км н/о +25.4 +19.3 69 +31 +31 очень
душно
1015.1 1013.7 +21.3 +29.2 0
19 18.08 В 1 12 км н/о +23.5 +18.6 74 +28 +28 душно 1015.3 1013.9
20 18.08 СЗ 1 45 км н/о +22.9 +19.1 79 +29 +29 очень
душно
1015.8 1014.4
21 18.08 Ю 2-1
{3}
40 км н/о +21.2 +18.9 87 +26 +26 душно 1015.8 1014.4 0
22 18.08 ЮЗ 1 40 км н/о +21.0 +18.8 87 +27 +27 душно 1015.9 1014.5
23 18.08 Ю 1-1
{1}
35 км н/о +20.5 +18.3 87 +25 +25 комфорт 1015.8 1014.4
00 19.08 Ю 1-1
{4}
35 км н/о +20.8 +18.4 86 +26 +26 душно 1015.8 1014.4 0
01 19.08 ЮЗ 1-2
{2}
35 км н/о +20.7 +18.5 87 +26 +26 душно 1015.6 1014.2
02 19.08 Ю 1-2
{2}
40 км н/о +20.4 +17.6 84 +25 +25 комфорт 1015.5 1014.1
03 19.08 Ю 2
{4}
45 км н/о +20.7 +17.1 80 +25 +25 комфорт 1015.6 1014.2 0
04 19.08 З 1-1
{2}
40 км н/о +20.0 +17.0 83 +24 +24 комфорт 1015.4 1014.0
05 19.08 ЮЗ 2 50 км н/о +20.7 +16.5 77 +25 +25 комфорт 1015.6 1014.2
06 19.08 ЮЗ 2
{3}
45 км н/о +22.6 +17.3 72 +27 +27 душно 1015.8 1014.4 +19.2 +25.3 0
07 19.08 Ю 1 35 км н/о +25.5 +17.9 63 +30 +30 душно 1016.0 1014.6
08 19.08 Ю 1 55 км н/о +27.4 +19.7 63 +33 +33 очень
душно
1016.2 1014.8
09 19.08 ЮВ 5
{7}
50 км н/о +28.7 +21.7 66 +37 +37 очень
душно
1016.5 1015.1 0
10 19.08 ЮВ 3 18 км н/о +28.9 +22.2 67 +38 +38 очень
душно
1016.9 1015.5
11 19.08 ЮВ 3 50 км н/о +29.1 +22.1 66 +38 +38 очень
душно
1017.0 1015.6
12 19.08 В 5
{9}
45 км н/о +29.1 +22.1 66 +38 +38 очень
душно
1017.1 1015.7 0
13 19.08 ЮВ 3 45 км н/о +28.9 +21.9 66 +37 +37 очень
душно
1017.0 1015.6
14 19.08 ЮВ 3 35 км н/о +28.5 +22.0 68 +37 +37 очень
душно
1016.9 1015.5
15 19.08 ЮВ 5
{9}
35 км н/о +28.4 +20.7 63 +35 +35 очень
душно
1017.0 1015.6 0
16 19.08 ЮВ 2 45 км н/о +28.4 +21.9 68 +37 +37 очень
душно
1016.7 1015.3
17 19.08 ЮВ 1 45 км н/о +27.9 +21.9 70 +36 +36 очень
душно
1016.7 1015.3
18 19.08 ЮВ 2
{5}
45 км н/о +25.9 +22.4 81 +34 +34 очень
душно
1017.0 1015.6 +22.6 +29.5 0
19 19.08 Ю 1 35 км н/о +24.8 +22.3 86 +32 +32 очень
душно
1017.1 1015.7
20 19.08 ЮЗ 1-1
{1}
23 км н/о +23.7 +21.8 89 +30 +30 очень
душно
1017.4 1016.0
21 19.08 ЮЗ 1
{2}
50 км н/о +22.9 +19.9 83 +30 +30 очень
душно
1017.4 1016.0 0
22 19.08 ЮЗ 1 55 км н/о +22.3 +19.1 82 +28 +28 душно 1017.5 1016.1
23 19.08 ЮЗ 1 55 км н/о +22.0 +18.6 81 +27 +27 душно 1017.4 1016.0
00 20.08 ЮЗ 2
{3}
50 км н/о +21.6 +18.2 81 +26 +26 душно 1017.3 1015.9 0
01 20.08 Ю 1-2
{2}
55 км н/о +21.2 +17.4 79 +25 +25 комфорт 1016.8 1015.4
02 20.08 ЮЗ 1 50 км н/о +20.9 +17.3 80 +26 +26 душно 1016.7 1015.3
03 20.08 ЮЗ 1-1
{3}
50 км н/о +20.2 +17.2 83 +24 +24 комфорт 1016.4 1015.0 0
04 20.08 ЮЗ 1-1
{2}
50 км н/о +19.6 +16.8 84 +23 +23 комфорт 1016.3 1014.9
05 20.08 ЮЗ 1 50 км н/о +19.9 +16.5 81 +24 +24 комфорт 1016.4 1015.0
06 20.08 ЮЗ 1
{4}
50 км н/о +22.2 +17.1 73 +27 +27 душно 1016.5 1015.1 0
07 20.08 ЮВ 1 40 км н/о +25.9 +18.6 64 +31 +31 очень
душно
1016.8 1015.4
08 20.08 В 1 19 км н/о +27.6 +19.9 63 +34 +34 очень
душно
1017.0 1015.6
09 20.08 В 4
{7}
18 км н/о +28.6 +22.1 68 +37 +37 очень
душно
1017.3 1015.9 0
10 20.08 ЮВ 3 19 км н/о +28.5 +22.3 69 +37 +37 очень
душно
1017.5 1016.1
11 20.08 ЮВ 2 35 км н/о +29.1 +21.6 64 +37 +37 очень
душно
1017.5 1016.1
12 20.08 В 5
{9}
35 км н/о +29.2 +21.9 65 +38 +38 очень
душно
1017.2 1015.8 0
13 20.08 В 3 35 км н/о +29.4 +20.5 59 +36 +36 очень
душно
1016.8 1015.4
14 20.08 ЮВ 2 30 км н/о +29.1 +21.1 62 +37 +37 очень
душно
1016.7 1015.3
15 20.08 ЮВ 5
{8}
45 км н/о +28.8 +21.6 65 +37 +37 очень
душно
1016.6 1015.2 0
16 20.08 ЮВ 4
{7}
8000 м н/о +28.1 +22.1 70 +37 +37 очень
душно
1016.4 1015.0
17 20.08 ЮВ 3
{7}
30 км н/о +27.4 +22.8 76 +36 +36 очень
душно
1016.4 1015.0
18 20.08 ЮВ 2
{5}
29 км н/о +25.9 +22.4 81 +34 +34 очень
душно
1016.7 1015.3 +22.3 +29.9 0
19 20.08 Ю 1 6000 м н/о +24.5 +22.2 87 +32 +32 очень
душно
1016.9 1015.5
20 20.08 ЮЗ 1 15 км н/о +23.6 +21.9 90 +30 +30 очень
душно
1017.1 1015.7
21 20.08 ЮЗ 3
{5}
40 км н/о +23.5 +20.0 81 +29 +29 душно 1016.8 1015.4 0
22 20.08 ЮЗ 1 40 км н/о +22.9 +19.1 79 +29 +29 очень
душно
1017.0 1015.6
23 20.08 Ю 1-1
{1}
40 км н/о +21.4 +18.6 84 +26 +26 душно 1017.0 1015.6
00 21.08 ЮЗ 2
{3}
45 км н/о +21.5 +18.3 82 +26 +26 душно 1016.8 1015.4 0
01 21.08 0-1 н/о 1015.4
02 21.08 0-1
{1}
н/о 1015.1
03 21.08 Ю 2-1
{3}
40 км н/о +19.8 +17.2 85 +23 +23 комфорт 1016.8 1015.4 0
04 21.08 ЮЗ 1 45 км н/о +20.4 +17.0 81 +25 +25 комфорт 1017.0 1015.6
05 21.08 ЮЗ 1 45 км 9/9
[]
+20.2 +17.2 83 +24 +24 комфорт 1017.2 1015.8
06 21.08 ЮЗ 2
{3}
45 км н/о +22.3 +18.5 79 +28 +28 душно 1017.6 1016.2 +19.8 +25.9 0
07 21.08 ЮЗ 1 40 км н/о +25.5 +19.9 71 +31 +31 очень
душно
1017.7 1016.3
08 21.08 СВ 1 19 км н/о +28.0 +21.5 68 +36 +36 очень
душно
1017.8 1016.4
09 21.08 В 3
{6}
40 км н/о +28.7 +22.0 67 +37 +37 очень
душно
1018.0 1016.6 0
10 21.08 В 2 50 км н/о +29.2 +21.2 62 +37 +37 очень
душно
1017.8 1016.4
11 21.08 В 2 45 км н/о +29.3 +21.8 64 +38 +38 очень
душно
1017.6 1016.2
12 21.08 В 4
{7}
19 км н/о +29.1 +21.8 65 +37 +37 очень
душно
1017.4 1016.0 0
13 21.08 В 2 19 км н/о +29.7 +21.9 63 +38 +38 очень
душно
1017.2 1015.8
14 21.08 В 2 40 км н/о +28.8 +22.1 67 +37 +37 очень
душно
1016.9 1015.5
15 21.08 ЮВ 3
{7}
27 км н/о +27.6 +22.5 74 +36 +36 очень
душно
1016.9 1015.5 0
16 21.08 ЮВ 1 30 км н/о +27.6 +22.1 72 +36 +36 очень
душно
1017.0 1015.6
17 21.08 В 1 29 км н/о +26.8 +22.4 77 +35 +35 очень
душно
1016.5 1015.1
18 21.08 ЮВ 2
{3}
28 км н/о +26.0 +22.1 79 +34 +34 очень
душно
1016.7 1015.3 +22.3 +29.9 0
19 21.08 Ю 1-1
{2}
13 км н/о +24.7 +22.4 87 +32 +32 очень
душно
1017.1 1015.7
20 21.08 ЮЗ 1-1
{1}
12 км н/о +23.3 +20.4 84 +31 +31 очень
душно
1017.5 1016.1
21 21.08 ЮЗ 2
{2}
14 км н/о +22.6 +20.7 89 +29 +29 очень
душно
1017.7 1016.3 0
22 21.08 Ю 1 25 км н/о +21.9 +19.5 86 +27 +27 душно 1017.9 1016.5
23 21.08 ЮЗ 1-1
{1}
25 км н/о +22.0 +19.7 87 +28 +28 душно 1017.8 1016.4
00 22.08 ЮЗ 2
{3}
19 км н/о +21.4 +19.3 88 +26 +26 душно 1017.5 1016.1 0
01 22.08 ЮЗ 1 30 км н/о +21.5 +18.1 81 +26 +26 душно 1017.1 1015.7
02 22.08 ЮЗ 2 35 км н/о +22.2 +18.2 78 +27 +27 душно 1017.1 1015.7
03 22.08 ЮЗ 3
{5}
35 км н/о +21.9 +17.7 77 +26 +26 душно 1017.0 1015.6 0
04 22.08 ЮЗ 1 30 км 9/9
[]
+21.3 +17.7 80 +25 +25 комфорт 1017.2 1015.8
05 22.08 ЮЗ 1 35 км 9/9
[]
+21.9 +17.5 76 +26 +26 душно 1017.4 1016.0
06 22.08 ЮЗ 3
{6}
45 км 8/0
[]
+23.1 +17.3 70 +28 +29 душно 1017.5 1016.1 +20.8 +26.0 0
07 22.08 ЮЗ 1 50 км 9/9
[]
+25.6 +18.0 63 +30 +31 душно 1018.1 1016.7
08 22.08 С 1 40 км 9/9
[]
+27.7 +19.8 62 +34 +35 очень
душно
1018.2 1016.8
09 22.08 ЮВ 2
{3}
45 км 9/0
[]
+28.1 +19.6 60 +34 +41 очень
душно
1018.5 1017.1 0
10 22.08 СВ 1 28 км 9/9
[]
+27.5 +20.8 67 +34 +36 очень
душно
1018.5 1017.1
11 22.08 В 2 19 км н/о +28.8 +22.1 67 +37 +37 очень
душно
1018.7 1017.3

 

Местоположение метеостанции Бастия (Франция): широта 42.55 долгота 9.48 высота над уровнем моря 12 м.

В архиве по умолчанию представлена погода в Бастии за последнюю неделю. Архивные данные за месяц целиком и за предыдущие месяцы, начиная с января 2011 года, Вы можете получить, выбрав интересующий диапазон дат из раскрывающегося списка и нажав кнопку "Ввод!".


*Определитесь, кто Вы:
робот инопланетянин человек

Внимание! Время в таблицах - всемирное. Для получения местного времени необходимо прибавить поправку, которая равна 1 ч.

Смотрите также архив погоды в соседних городах и на ближайших метеорологических станциях:

Погода на Мысе Сагро (Франция) (28 км)
Погода в Алистро (Франция) (31 км)
Погода в Л’Иль-Русе (Франция) (47 км)
Погода на Мысе Корсика (Франция) (51 км)
Погода в Кальви (Франция) (56 км)
Погода в Соленцаре (Франция) (70 км)
Погода на Mонте Каламита (Италия) (78 км)
Погода в Аяччо (Франция) (90 км)
Погода в Ла Парате (Франция) (100 км)
Погода в Фигари (Франция) (121 км)

Пояснения к столбцам:

Ветер - указаны скорость ветра в м/с - средняя за 10 мин, порывы в срок и между сроками (в фигурных скобках) и направление, откуда дует ветер: С - северный, СВ - северо-восточный, В - восточный, ЮВ - юго-восточный, Ю - южный, ЮЗ - юго-западный, З - западный, СЗ - северо-западный.
Видимость - горизонтальная дальность видимости в метрах или километрах. При видимости от 1 до 10 км при отсутствии осадков обычно наблюдается дымка, при ухудшении видимости до 1 км и менее - туман. В сухую погоду видимость может ухудшаться дымом, пылью или мглою.
Явления - указаны атмосферные явления, наблюдавшиеся в срок или в последний час перед сроком; фигурными скобками обозначены явления, наблюдавшиеся между сроками (за 1-3 часа до срока); квадратными скобками обозначены град или гололедные отложения с указанием их диаметра в мм.
Облачность - указаны через наклонную черту общая и нижняя облачность в баллах и высота нижней границы облаков в метрах; квадратными скобками обозначены формы облаков: Ci - перистые, Cs - перисто-слоистые, Cc - перисто-кучевые, Ac - высококучевые, As - высокослоистые, Sc - слоисто-кучевые, Ns - слоисто-дождевые, Cu - кучевые, Cb - кучево-дождевые. Подробнее классификацию облаков см. в Атласе облаков (PDF).
T - Температура воздуха - температура, измеренная на высоте 2 м над землей.
Td - Температура точки росы - температура, при понижении до которой содержащийся в воздухе водяной пар достигнет насыщения.
f - Относительная влажность воздуха - влажноcть воздуха, измеренная на высоте 2 м над землей.
Te - Эффективная температура - температура, которую ощущает одетый по сезону человек в тени. Характеристика душности погоды. При расчете учитывается влияние влажности воздуха и скорости ветра на теплоощущения человека.
Tes - Эффективная температура на солнце - температура, которую ощущает человек, с поправкой на солнечный нагрев. Характеристика знойности погоды. Зависит от высоты солнца над горизонтом, облачности и скорости ветра. Ночью, в пасмурную погоду, а также при ветре 12 м/с и более поправка равна нулю.
P - Атмосферное давление - приведенное к уровню моря атмосферное давление.
Po - Атмосферное давление - измеренное на уровне метеостанции атмосферное давление.
Tmin - Минимальная температура - минимум температуры воздуха на высоте 2 м над землей.
Tmax - Максимальная температура - максимум температуры воздуха на высоте 2 м над землей.
R - Количество осадков - Количество выпавших осадков за период времени, мм. При наведении курсора мыши на число - период времени, за который выпало указанное количество осадков.
R24 - Количество осадков - Количество выпавших осадков за 24 часа, мм.
S - Снежный покров - Высота снежного покрова, см. При наведении курсора мыши на число - состояние снежного покрова и степень покрытия местности в баллах.